FW5474 Weather Reports


time (UTC)temp
C
wind
direction
speed
KPH
gust
KPH
rain 1hr
cm
rain 24hr
cm
rain mn
cm
humidity
%
barometer
mb
20260906113032 -17 330 0.0 0.0 0.00 0.00 0.00 1012.7
20260906111530 -17 329 0.0 0.0 0.00 0.00 0.00 1012.6
20260906110023 -17 329 0.0 0.0 0.00 0.00 0.00 1012.5
20260906104520 -17 329 0.0 0.0 0.00 0.00 0.00 1012.5
20260906103014 -17 329 0.0 0.0 0.00 0.00 0.00 1012.2
20260906101509 -17 329 0.0 0.0 0.00 0.00 0.00 1012.2
20260906100006 -17 329 0.0 0.0 0.00 0.00 0.00 1012.1
20260906094501 -17 329 0.0 0.0 0.00 0.00 0.00 1012.0
20260906093059 -17 329 0.0 0.0 0.00 0.00 0.00 1011.9
20260906091555 -17 329 0.0 0.0 0.00 0.00 0.00 1011.8
20260906090050 -17 329 0.0 0.0 0.00 0.00 0.00 1011.8
20260906084546 -17 329 0.0 0.0 0.00 0.00 0.00 1011.9
20260906083041 -17 329 0.0 0.0 0.00 0.00 0.00 1012.1
20260906081541 -17 329 0.0 0.0 0.00 0.00 0.00 1012.0
20260906080034 -17 329 0.0 0.0 0.00 0.00 0.00 1012.0
20260906074528 -17 329 0.0 0.0 0.00 0.00 0.00 1011.9
20260906073023 -17 329 0.0 0.0 0.00 0.00 0.00 1011.9
20260906071518 -17 329 0.0 0.0 0.00 0.00 0.00 1012.0
20260906070015 -17 329 0.0 0.0 0.00 0.00 0.00 1012.0
20260906064519 -17 329 0.0 0.0 0.00 0.00 0.00 1012.1
20260906063004 -17 329 0.0 0.0 0.00 0.00 0.00 1012.2
20260906061600 -17 329 0.0 0.0 0.00 0.00 0.00 1012.3
20260906060142 -17 329 0.0 0.0 0.00 0.00 0.00 1012.6
20260906054551 -17 329 0.0 0.0 0.00 0.00 0.00 1012.7
20260906053047 -67 329 0.0 0.0 0.00 0.00 0.00 1012.8
20260906051542 -67 329 0.0 0.0 0.00 0.00 0.00 1012.7
20260906050039 -67 329 0.0 0.0 0.00 0.00 0.00 1012.8
20260906044534 -67 329 0.0 0.0 0.00 0.00 0.00 1012.8
20260906043035 -67 329 0.0 0.0 0.00 0.00 0.00 1012.7
20260906041530 -67 329 0.0 0.0 0.00 0.00 0.00 1012.8
20260906040032 -67 329 0.0 0.0 0.00 0.00 0.00 1012.9
20260906034521 -67 329 0.0 0.0 0.00 0.00 0.00 1013.3
20260906033012 -67 332 0.0 0.0 0.00 0.00 0.00 1013.3
20260906031507 -67 304 0.0 8.0 0.00 0.00 0.00 1013.4
20260906030108 -17 338 0.0 11.3 0.00 0.00 0.00 1013.3
20260906024604 -67 274 3.2 9.7 0.00 0.00 0.00 1013.0
20260906023109 -17 304 0.0 0.0 0.00 0.00 0.00 1013.1
20260906021550 -17 360 0.0 0.0 0.00 0.00 0.00 1013.1
20260906020055 -17 255 0.0 0.0 0.00 0.00 0.00 1013.1
20260906014542 -17 254 0.0 0.0 0.00 0.00 0.00 1013.2
20260906013039 -17 254 0.0 0.0 0.00 0.00 0.00 1013.1
20260906011538 -17 255 0.0 0.0 0.00 0.00 0.00 1013.0
20260906010036 -17 259 0.0 0.0 0.00 0.00 0.00 1012.7
20260906004534 -17 260 0.0 0.0 0.00 0.00 0.00 1012.6
20260906003031 -17 284 0.0 0.0 0.00 0.00 0.00 1012.8
20260906001539 -17 286 0.0 0.0 0.00 0.00 0.00 1012.6
20260906000030 -17 286 0.0 0.0 0.00 0.00 0.00 1012.5
20260905234532 -17 286 0.0 0.0 0.00 0.00 0.00 1012.5
20260905233024 -17 286 0.0 0.0 0.00 0.00 0.00 1012.4
20260905231532 -17 286 0.0 0.0 0.00 0.00 0.00 1012.5
20260905230018 -17 286 0.0 0.0 0.00 0.00 0.00 1012.2
20260905224521 -17 286 0.0 0.0 0.00 0.03 0.00 1012.3
20260905223013 -67 286 0.0 0.0 0.00 0.03 0.00 1012.3
20260905221508 -67 286 0.0 0.0 0.00 0.03 0.00 1012.5
20260905220003 -67 287 0.0 4.8 0.00 0.48 0.00 1012.7
20260905214606 -67 335 0.0 1.6 0.00 0.48 0.00 1012.6
20260905213056 -67 328 0.0 8.0 0.00 0.48 0.00 1012.5
20260905211552 -67 327 0.0 8.0 0.00 0.48 0.00 1012.4
20260905210103 -67 44 1.6 12.9 0.00 0.48 0.00 1012.3
20260905204545 -67 59 0.0 6.4 0.00 0.53 0.00 1012.2
20260905203040 -67 21 1.6 8.0 0.00 0.53 0.00 1012.1
20260905201537 -67 360 1.6 9.7 0.00 0.53 0.00 1012.2
20260905200032 -67 45 3.2 8.0 0.00 0.53 0.00 1012.3
20260905194526 -67 128 0.0 8.0 0.00 0.53 0.00 1012.6
20260905193021 -67 360 1.6 9.7 0.00 0.53 0.00 1012.7
20260905191516 -67 66 0.0 8.0 0.00 0.53 0.00 1013.1
20260905190025 -67 46 0.0 9.7 0.00 0.53 0.00 1013.3
20260905184510 -67 84 1.6 9.7 0.00 0.53 0.00 1013.4
20260905183007 -67 73 1.6 8.0 0.00 0.53 0.00 1013.5
20260905181559 -67 48 0.0 4.8 0.00 0.53 0.00 1014.0
20260905180112 -67 355 0.0 9.7 0.00 0.53 0.00 1014.2
20260905174553 -67 360 0.0 6.4 0.00 0.53 0.00 1014.4
20260905173109 -67 49 3.2 9.7 0.00 0.53 0.00 1014.5
20260905171553 -67 29 0.0 0.0 0.00 0.53 0.00 1014.7
20260905170041 -67 92 0.0 1.6 0.00 0.53 0.00 1014.9
20260905164539 -67 20 0.0 0.0 0.00 0.53 0.00 1015.0
20260905163031 -67 113 0.0 3.2 0.00 0.53 0.00 1015.1
20260905161527 -67 54 0.0 8.0 0.00 0.53 0.00 1015.4
20260905160034 -67 90 0.0 6.4 0.00 0.53 0.00 1015.5
20260905154518 -67 66 1.6 6.4 0.00 0.53 0.00 1015.8
20260905153013 -67 71 0.0 8.0 0.00 0.53 0.00 1016.2
20260905151510 -67 57 1.6 6.4 0.00 0.53 0.00 1016.3
20260905150005 70 328 0.0 6.4 0.00 0.53 0.00 1 1016.1
20260905144600 70 38 0.0 9.7 0.00 0.53 0.00 1 1016.3
20260905143058 70 91 3.2 11.3 0.00 0.53 0.00 1 1016.2
20260905141551 70 59 1.6 6.4 0.00 0.53 0.00 1 1016.0
20260905140052 70 38 0.0 0.0 0.00 0.53 0.00 1 1016.0
20260905134549 70 36 0.0 0.0 0.00 0.53 0.00 1 1016.2
20260905133038 70 69 0.0 0.0 0.00 0.53 0.00 1 1016.5
20260905131532 70 51 0.0 0.0 0.00 0.53 0.00 1 1016.3
20260905130028 70 125 0.0 0.0 0.00 0.53 0.00 1 1016.2
20260905124524 70 134 0.0 0.0 0.00 0.53 0.00 1 1016.3
20260905123020 70 80 0.0 0.0 0.00 0.53 0.00 1 1016.1
20260905121515 70 74 0.0 0.0 0.00 0.53 0.00 1 1016.0
20260905120023 70 37 0.0 0.0 0.00 0.53 0.00 1 1015.8
20260905114506 -67 36 0.0 0.0 0.00 0.53 0.00 1015.4